This demonstration page uses our WeatherBlox Daily Observations layout. Learn more.

Left ArrowRight Arrow

39.08367, -84.50855

Hourly Observations for April 3, 2017

Temp ( °F °C ) Dew Point ( °F °C ) Humidity (%) Winds ( mph kmh ) Pressure ( in mb ) Visibility ( mi km ) Precip ( " mm )
12:53 am 00:53 Clear 48 8.9 46 7.8 93 93 N N/A 29.92 1013 10 16 N/A
1:53 am 01:53 Clear 47 8.3 45 7.2 93 93 N N/A 29.90 1012 10 16 N/A
2:53 am 02:53 Clear 48 8.9 45 7.2 89 89 N N/A 29.85 1011 10 16 N/A
3:53 am 03:53 Clear 48 8.9 46 7.8 93 93 N N/A 29.80 1009 10 16 N/A
4:53 am 04:53 Clear 48 8.9 46 7.8 93 93 N N/A 29.80 1009 10 16 N/A
5:53 am 05:53 Partly Cloudy 49 9.4 47 8.3 93 93 N N/A 29.80 1009 10 16 N/A
6:53 am 06:53 Mostly Clear 49 9.4 46 7.8 90 90 N N/A 29.78 1009 10 16 N/A
7:53 am 07:53 Mostly Cloudy 50 10 46 7.8 86 86 N N/A 29.78 1008 10 16 N/A
8:53 am 08:53 Cloudy 52 11.1 48 8.9 86 86 N N/A 29.77 1008 10 16 N/A
9:53 am 09:53 Cloudy 56 13.3 49 9.4 77 77 SW 6 9 29.74 1007 10 16 N/A
10:53 am 10:53 Cloudy 59 15 52 11.1 78 78 S 3 6 29.72 1006 10 16 N/A
11:53 am 11:53 Mostly Cloudy 66 18.9 54 12.2 65 65 SE 13 20 29.66 1004 10 16 N/A
12:53 pm 12:53 Cloudy 65 18.3 56 13.3 73 73 SSE 13 20 29.64 1004 10 16 N/A
1:53 pm 13:53 Mostly Cloudy 66 18.9 57 13.9 73 73 SSE 12 19 29.60 1002 10 16 N/A
2:53 pm 14:53 Mostly Cloudy 68 20 59 15 73 73 SSE 10 17 29.56 1001 10 16 N/A
3:53 pm 15:53 Mostly Sunny 67 19.4 58 14.4 73 73 S 10 17 29.54 1000 10 16 N/A
4:53 pm 16:53 Cloudy 67 19.4 58 14.4 73 73 S 6 9 29.52 1000 10 16 N/A
5:53 pm 17:53 Cloudy with Rain 62 16.7 60 15.6 93 93 N N/A 29.52 1000 3 5 0.04 1.02
6:53 pm 18:53 Mostly Cloudy 65 18.3 60 15.6 84 84 SE 8 13 29.49 999 10 16 N/A
7:53 pm 19:53 Mostly Cloudy 63 17.2 60 15.6 90 90 SE 3 6 29.48 998 10 16 N/A
8:53 pm 20:53 Clear 61 16.1 58 14.4 90 90 W 5 7 29.47 998 10 16 N/A
9:53 pm 21:53 Cloudy with Light Rain 60 15.6 59 15 96 96 S 8 13 29.49 999 6 10 0.03 0.76
10:53 pm 22:53 Partly Cloudy 59 15 58 14.4 96 96 S 10 17 29.47 998 10 16 0.09 2.29
11:53 pm 23:53 Mostly Cloudy 58 14.4 57 13.9 97 97 SSW 10 17 29.46 998 10 16 N/A

Powered by AerisWeather